Lid_Strength_Index
9 12 14 13 12 13 13 15 16 16 13 14 13 13 11 10 12 11 11 11 11 10 9 9 8 7 8 8 7 7 7 7 6 6 5 6 5 3 2 2 1 1 2 1
11 14 12 10 11 14 15 17 17 15 13 14 15 14 13 12 12 11 11 11 11 11 10 9 9 8 8 8 8 8 8 8 7 7 5 4 6 3 3 4 6 6 5 3
12 13 9 10 11 13 15 17 17 17 15 15 16 17 15 12 12 12 11 10 10 10 10 10 9 9 10 10 9 9 9 9 8 7 5 4 3 4 5 6 9 10 9 8
11 9 10 11 13 12 15 13 13 14 16 19 16 22 18 16 14 13 12 11 10 10 10 9 9 10 10 10 10 10 10 9 9 8 5 4 4 6 7 8 9 11 10 10
12 11 11 12 12 10 13 11 12 12 15 17 19 19 19 16 15 13 11 11 11 10 10 9 9 9 10 11 11 11 11 10 10 9 8 8 8 9 9 9 10 11 11 11
11 8 9 10 9 9 9 11 12 14 15 20 17 18 21 17 14 13 11 11 10 11 10 9 9 9 11 12 12 12 11 11 11 11 10 10 10 10 10 11 12 12 12 12
11 11 10 8 11 10 11 13 19 20 20 22 17 17 17 15 14 13 11 11 10 10 10 10 10 10 11 12 12 12 12 12 12 12 12 12 12 11 11 12 12 13 13 13
16 17 11 9 10 12 12 12 17 21 21 21 17 19 18 13 12 11 11 10 10 9 10 9 9 10 11 12 12 12 12 12 12 13 13 13 12 13 13 13 14 14 14 14
15 15 10 9 9 9 13 14 12 16 22 22 19 18 16 13 13 13 11 11 10 10 10 10 10 10 11 12 12 13 13 13 13 13 14 14 14 14 14 14 14 14 14 13
12 16 12 10 9 9 11 9 16 15 23 25 20 20 18 16 14 13 12 11 11 11 10 10 10 11 11 12 12 13 13 13 13 13 14 14 14 14 14 14 14 14 14 14
11 13 14 11 13 13 12 14 13 13 17 22 24 20 16 15 14 13 13 11 11 11 11 10 10 11 12 12 13 13 13 13 13 13 14 15 15 15 15 15 15 15 15 15
10 12 16 14 12 11 10 12 12 16 18 17 18 18 14 14 13 13 12 12 12 10 11 11 12 12 12 12 13 13 14 14 14 14 15 15 15 15 16 16 16 16 16 15
9 14 17 16 13 13 13 11 11 12 14 16 19 18 12 12 12 13 12 13 12 11 11 11 12 13 12 13 13 14 14 15 15 15 16 17 17 17 17 17 16 16 16 16
8 12 14 17 15 13 15 13 11 12 16 16 15 15 14 14 13 12 12 12 11 10 10 11 12 12 12 12 13 14 15 15 15 15 16 16 16 16 17 16 16 16 16 15
9 15 13 12 12 12 12 13 12 14 13 16 14 14 12 11 12 11 11 11 11 10 10 10 11 11 12 13 14 14 14 15 15 15 16 16 16 16 16 16 15 15 15 15
11 14 13 14 12 13 13 12 12 12 12 12 12 13 10 10 10 10 10 9 9 10 10 9 9 10 11 12 12 13 13 14 14 15 15 15 15 15 15 15 15 15 15 15
12 13 14 17 13 14 16 13 13 12 11 11 14 11 8 10 11 10 10 9 9 9 9 9 9 8 9 9 10 11 12 13 14 14 15 15 15 15 15 15 15 15 15 15
13 14 14 19 15 20 13 9 9 11 10 9 9 9 9 8 8 8 8 7 8 8 7 8 8 8 9 9 11 12 13 14 14 14 15 15 15 15 15 15 15 16 15 15
10 13 18 17 17 15 13 13 11 12 12 9 9 8 8 8 9 9 8 8 7 7 7 7 8 9 9 10 11 13 14 14 14 15 15 15 15 15 15 15 15 15 15 15
10 10 14 21 20 19 13 11 10 10 15 9 8 8 8 10 12 9 7 9 8 8 9 10 11 12 11 13 14 14 15 15 15 15 15 15 15 15 15 15 16 15 15 15
13 13 15 16 17 15 11 12 9 16 14 10 9 8 8 10 8 8 10 11 10 11 12 14 15 14 14 15 15 15 15 15 15 15 15 16 15 15 15 15 16 15 15 15
15 16 16 15 17 19 11 12 12 10 11 11 11 9 10 10 9 10 11 11 12 13 14 15 15 16 16 15 14 15 16 16 16 16 17 16 16 16 16 16 16 16 16 16
16 12 14 13 13 10 11 10 9 10 10 11 11 10 10 10 11 11 12 12 13 14 15 16 16 17 17 16 15 16 18 17 18 18 19 18 17 16 16 16 16 16 16 17
13 10 11 11 10 10 10 9 10 10 9 8 10 11 11 11 11 12 12 13 14 15 16 18 18 18 19 19 17 18 18 18 18 19 19 18 18 17 17 16 16 17 17 17
11 11 13 12 9 9 10 10 9 10 10 11 12 11 11 11 11 12 12 13 14 16 18 18 18 18 20 20 20 20 19 19 19 19 19 18 18 18 18 17 17 17 16 16
11 11 12 12 9 9 9 9 9 11 11 10 12 12 13 12 12 12 13 14 16 17 19 19 20 21 22 22 23 22 21 19 19 20 19 19 19 18 18 18 18 15 16 15